Home > Weather > Ryazan > Past weeks

Flag for Russia Weather for the Past 2 Weeks in Ryazan, Russia

Now
68 °F

Partly sunny.


Feels Like: 68 °F
Forecast: 47 / 58 °F
Wind: 8 mph from Northeast

Location: Moscow / Domodedovo

Current Time: May 4, 2016 at 12:57:07 PM

Latest Report: May 4, 2016 at 12:30 PM


Visibility: N/A

Pressure: 29.98 "Hg

Humidity: 28%

Dew Point: 34 °F

Location of RyazanLocation

Historic Weather in Ryazan — Graph

°F

Ryazan Temperature Yesterday

Maximum temperature yesterday: 70 °F (at 12:30 PM)
Minimum temperature yesterday: 45 °F (at 4:30 AM)
Average temperature yesterday: 57 °F

High & Low Weather Summary for the Past Weeks

 TemperatureHumidityPressure
High70 °F (May 3, 12:30 PM)100% (Apr 21, 1:00 AM)30.24 "Hg (Apr 21, 1:00 AM)
Low30 °F (Apr 21, 2:00 AM)20% (May 1, 12:00 PM)29.47 "Hg (Apr 22, 9:30 PM)
Average51 °F62%29.93 "Hg
* Reported Apr 19 11:00 AM — May 4 11:00 AM, Ryazan, Weather by CustomWeather, © 2016

Note: Actual official high and low records may vary slightly from our data, if they occured in-between our weather recording intervals... More about our weather records

Advertising

Ryazan Weather History for the Previous 24 Hours

Scroll right to see more
 ConditionsComfort  
Time TempWeatherWind HumidityBarometerVisibility
11:00 AM
Wed, May 4
68 °FPassing clouds.10 mph24%29.98 "HgN/A
10:30 AM66 °FPassing clouds.10 mph28%29.98 "HgN/A
10:00 AM66 °FSunny.8 mph28%30.01 "Hg10 mi
9:00 AM64 °FPassing clouds.8 mph30%30.01 "HgN/A
8:30 AM64 °FSunny.6 mph37%30.01 "Hg10 mi
8:00 AM61 °FPassing clouds.8 mph39%30.01 "HgN/A
7:30 AM59 °FSunny.6 mph42%30.01 "Hg10 mi
7:00 AM57 °FSunny.6 mph48%30.01 "Hg10 mi
6:30 AM52 °FSunny.6 mph62%30.01 "Hg10 mi
6:00 AM46 °FSunny.6 mph82%30.01 "Hg10 mi
5:30 AM46 °FSunny.6 mph76%30.01 "Hg10 mi
5:00 AM46 °FSunny.3 mph76%30.01 "Hg10 mi
4:30 AM45 °FClear.No wind81%29.98 "Hg10 mi
4:00 AM48 °FClear.1 mph71%29.98 "Hg10 mi
3:30 AM48 °FPassing clouds.6 mph66%30.01 "HgN/A
3:00 AM50 °FPassing clouds.3 mph67%30.01 "HgN/A
2:30 AM48 °FClear.3 mph71%30.01 "Hg10 mi
2:00 AM52 °FClear.No wind58%30.01 "Hg10 mi
1:30 AM48 °FClear.No wind71%30.01 "Hg10 mi
1:00 AM48 °FClear.1 mph71%30.01 "Hg10 mi
12:30 AM50 °FClear.3 mph67%30.01 "Hg10 mi
12:00 AM48 °FClear.1 mph76%30.01 "Hg10 mi
11:30 PM
Tue, May 3
48 °FClear.1 mph76%30.01 "Hg10 mi
11:00 PM48 °FPassing clouds.3 mph71%30.01 "HgN/A
10:30 PM52 °FPassing clouds.3 mph67%30.01 "HgN/A
10:00 PM55 °FPassing clouds.6 mph55%30.01 "HgN/A
9:30 PM57 °FClear.6 mph51%30.01 "Hg10 mi
9:00 PM57 °FPassing clouds.8 mph48%30.01 "HgN/A
8:30 PM57 °FPassing clouds.3 mph48%30.01 "HgN/A
8:00 PM59 °FPassing clouds.3 mph45%30.01 "HgN/A
7:30 PM61 °FPassing clouds.3 mph42%30.01 "HgN/A
7:00 PM61 °FPassing clouds.3 mph42%30.01 "HgN/A
6:30 PM61 °FPassing clouds.6 mph45%30.01 "HgN/A
6:00 PM63 °FPassing clouds.8 mph32%30.01 "HgN/A
5:30 PM61 °FPassing clouds.13 mph36%30.04 "HgN/A
5:00 PM63 °FPassing clouds.13 mph34%30.04 "HgN/A
4:30 PM66 °FSunny.8 mph28%30.04 "Hg10 mi
4:00 PM66 °FPassing clouds.8 mph30%30.04 "HgN/A
3:30 PM64 °FPassing clouds.10 mph32%30.04 "HgN/A
2:30 PM64 °FScattered clouds.8 mph32%30.04 "HgN/A
2:00 PM63 °FPartly sunny.8 mph34%30.07 "HgN/A
1:30 PM64 °FPartly sunny.8 mph32%30.07 "HgN/A
1:00 PM64 °FPartly sunny.17 mph30%30.07 "HgN/A
12:30 PM70 °FScattered clouds.10 mph29%30.07 "HgN/A
12:00 PM68 °FScattered clouds.8 mph30%30.07 "HgN/A
Weather by CustomWeather, © 2016

See weather overviewHow to use our weather pages